| time (UTC) | temp F | wind direction | speed MPH | gust MPH | rain 1hr in | rain 24hr in | rain mn in | humidity % | barometer mb |
| 20260904065918 | 56 | 72 | 1.0 | 2.0 | 0.00 | 0.24 | 0.20 | 92 | 1012.2 |
| 20260904065433 | 56 | 63 | 1.0 | 2.0 | 0.00 | 0.24 | 0.20 | 92 | 1012.2 |
| 20260904064934 | 56 | 81 | 0.0 | 3.0 | 0.00 | 0.24 | 0.20 | 92 | 1012.2 |
| 20260904064431 | 56 | 53 | 1.0 | 3.0 | 0.00 | 0.24 | 0.20 | 92 | 1012.1 |
| 20260904063931 | 56 | 66 | 1.0 | 2.0 | 0.00 | 0.24 | 0.20 | 93 | 1012.2 |
| 20260904063427 | 55 | 67 | 1.0 | 2.0 | 0.00 | 0.24 | 0.20 | 92 | 1012.1 |
| 20260904062948 | 56 | 68 | 1.0 | 2.0 | 0.00 | 0.24 | 0.20 | 92 | 1012.1 |
| 20260904062419 | 56 | 88 | 0.0 | 1.0 | 0.01 | 0.24 | 0.20 | 92 | 1012.1 |
| 20260904061946 | 56 | 108 | 0.0 | 1.0 | 0.01 | 0.24 | 0.20 | 92 | 1012.1 |
| 20260904061440 | 56 | 129 | 0.0 | 2.0 | 0.01 | 0.24 | 0.20 | 92 | 1012.1 |
| 20260904060958 | 56 | 71 | 1.0 | 3.0 | 0.01 | 0.24 | 0.20 | 92 | 1012.0 |
| 20260904060436 | 56 | 117 | 1.0 | 4.0 | 0.01 | 0.24 | 0.20 | 91 | 1012.0 |
| 20260904060003 | 56 | 76 | 1.0 | 4.0 | 0.01 | 0.24 | 0.20 | 92 | 1012.0 |
| 20260904055419 | 56 | 58 | 0.0 | 2.0 | 0.01 | 0.24 | 0.20 | 92 | 1012.1 |
| 20260904054918 | 56 | 55 | 0.0 | 3.0 | 0.01 | 0.24 | 0.20 | 92 | 1012.0 |
| 20260904054435 | 56 | 47 | 1.0 | 3.0 | 0.01 | 0.24 | 0.20 | 92 | 1012.1 |
| 20260904053933 | 56 | 23 | 0.0 | 0.0 | 0.01 | 0.24 | 0.20 | 93 | 1012.1 |
| 20260904053439 | 56 | 100 | 0.0 | 0.0 | 0.01 | 0.24 | 0.20 | 93 | 1012.2 |
| 20260904052938 | 56 | 101 | 0.0 | 0.0 | 0.01 | 0.24 | 0.20 | 92 | 1012.2 |
| 20260904052433 | 56 | 4 | 0.0 | 0.0 | 0.00 | 0.23 | 0.19 | 92 | 1012.1 |
| 20260904051931 | 56 | 74 | 0.0 | 0.0 | 0.00 | 0.23 | 0.19 | 92 | 1012.1 |
| 20260904051439 | 56 | 74 | 0.0 | 0.0 | 0.00 | 0.23 | 0.19 | 92 | 1012.1 |
| 20260904050937 | 56 | 74 | 0.0 | 0.0 | 0.00 | 0.23 | 0.19 | 92 | 1012.3 |
| 20260904050456 | 56 | 75 | 0.0 | 0.0 | 0.00 | 0.23 | 0.19 | 92 | 1012.3 |
| 20260904045942 | 56 | 75 | 0.0 | 0.0 | 0.00 | 0.23 | 0.19 | 92 | 1012.4 |
| 20260904045439 | 56 | 75 | 0.0 | 0.0 | 0.00 | 0.23 | 0.19 | 92 | 1012.3 |
| 20260904044936 | 56 | 66 | 0.0 | 0.0 | 0.00 | 0.23 | 0.19 | 92 | 1012.3 |
| 20260904044432 | 56 | 77 | 0.0 | 0.0 | 0.00 | 0.23 | 0.19 | 92 | 1012.4 |
| 20260904043929 | 56 | 78 | 0.0 | 0.0 | 0.00 | 0.23 | 0.19 | 91 | 1012.4 |
| 20260904043435 | 56 | 79 | 0.0 | 0.0 | 0.00 | 0.23 | 0.19 | 91 | 1012.4 |
| 20260904042929 | 56 | 65 | 0.0 | 0.0 | 0.00 | 0.23 | 0.19 | 91 | 1012.4 |
| 20260904042426 | 56 | 102 | 0.0 | 0.0 | 0.00 | 0.23 | 0.19 | 91 | 1012.4 |
| 20260904041926 | 56 | 152 | 0.0 | 0.0 | 0.00 | 0.23 | 0.19 | 91 | 1012.5 |
| 20260904041423 | 57 | 231 | 0.0 | 1.0 | 0.00 | 0.23 | 0.19 | 90 | 1012.4 |
| 20260904041004 | 57 | 191 | 0.0 | 2.0 | 0.00 | 0.23 | 0.19 | 90 | 1012.3 |
| 20260904040442 | 57 | 170 | 0.0 | 3.0 | 0.00 | 0.23 | 0.19 | 90 | 1012.3 |
| 20260904035918 | 57 | 68 | 1.0 | 3.0 | 0.00 | 0.23 | 0.19 | 90 | 1012.3 |
| 20260904035444 | 56 | 75 | 1.0 | 3.0 | 0.00 | 0.23 | 0.19 | 91 | 1012.2 |
| 20260904034920 | 56 | 46 | 1.0 | 2.0 | 0.00 | 0.23 | 0.19 | 91 | 1012.1 |
| 20260904034419 | 56 | 75 | 0.0 | 1.0 | 0.00 | 0.23 | 0.19 | 91 | 1012.2 |
| 20260904033942 | 56 | 51 | 0.0 | 1.0 | 0.00 | 0.23 | 0.19 | 91 | 1012.1 |
| 20260904033439 | 57 | 113 | 0.0 | 1.0 | 0.00 | 0.23 | 0.19 | 92 | 1012.1 |
| 20260904032938 | 57 | 56 | 0.0 | 1.0 | 0.00 | 0.23 | 0.19 | 92 | 1012.1 |
| 20260904032434 | 57 | 100 | 0.0 | 0.0 | 0.00 | 0.23 | 0.19 | 91 | 1012.0 |
| 20260904031933 | 57 | 100 | 0.0 | 1.0 | 0.00 | 0.23 | 0.19 | 91 | 1011.8 |
| 20260904031438 | 57 | 100 | 0.0 | 1.0 | 0.00 | 0.23 | 0.19 | 91 | 1011.8 |
| 20260904030936 | 57 | 101 | 0.0 | 0.0 | 0.00 | 0.23 | 0.19 | 90 | 1011.8 |
| 20260904030432 | 57 | 101 | 0.0 | 1.0 | 0.00 | 0.23 | 0.19 | 90 | 1011.8 |
| 20260904025932 | 57 | 101 | 0.0 | 1.0 | 0.00 | 0.23 | 0.19 | 90 | 1011.7 |
| 20260904025428 | 57 | 101 | 0.0 | 1.0 | 0.00 | 0.23 | 0.19 | 89 | 1011.7 |
| 20260904024946 | 57 | 103 | 0.0 | 1.0 | 0.00 | 0.23 | 0.19 | 88 | 1011.7 |
| 20260904024443 | 58 | 103 | 0.0 | 1.0 | 0.00 | 0.23 | 0.19 | 88 | 1011.6 |
| 20260904023922 | 58 | 109 | 0.0 | 1.0 | 0.00 | 0.23 | 0.19 | 88 | 1011.6 |
| 20260904023421 | 58 | 62 | 0.0 | 1.0 | 0.00 | 0.23 | 0.19 | 89 | 1011.6 |
| 20260904022919 | 58 | 62 | 0.0 | 0.0 | 0.00 | 0.23 | 0.19 | 89 | 1011.6 |
| 20260904022435 | 58 | 61 | 0.0 | 1.0 | 0.00 | 0.23 | 0.19 | 88 | 1011.6 |
| 20260904021932 | 58 | 61 | 0.0 | 4.0 | 0.00 | 0.23 | 0.19 | 88 | 1011.6 |
| 20260904021439 | 58 | 60 | 1.0 | 4.0 | 0.00 | 0.23 | 0.19 | 88 | 1011.7 |
| 20260904020936 | 58 | 77 | 0.0 | 2.0 | 0.00 | 0.23 | 0.19 | 88 | 1011.6 |
| 20260904020432 | 58 | 70 | 0.0 | 1.0 | 0.00 | 0.23 | 0.19 | 88 | 1011.7 |
| 20260904015928 | 58 | 103 | 0.0 | 1.0 | 0.00 | 0.23 | 0.19 | 88 | 1011.7 |
| 20260904015419 | 58 | 103 | 0.0 | 2.0 | 0.00 | 0.23 | 0.19 | 87 | 1011.7 |
| 20260904014942 | 58 | 92 | 1.0 | 2.0 | 0.00 | 0.23 | 0.19 | 86 | 1011.7 |
| 20260904014439 | 58 | 87 | 0.0 | 2.0 | 0.00 | 0.23 | 0.19 | 87 | 1011.7 |
| 20260904013937 | 58 | 67 | 0.0 | 2.0 | 0.00 | 0.23 | 0.19 | 87 | 1011.8 |
| 20260904013434 | 58 | 98 | 0.0 | 1.0 | 0.00 | 0.23 | 0.19 | 88 | 1011.7 |
| 20260904012952 | 58 | 106 | 0.0 | 2.0 | 0.00 | 0.23 | 0.19 | 88 | 1011.8 |
| 20260904012428 | 58 | 27 | 0.0 | 5.0 | 0.00 | 0.23 | 0.19 | 88 | 1011.8 |
| 20260904011919 | 57 | 98 | 2.0 | 5.0 | 0.00 | 0.23 | 0.19 | 89 | 1011.8 |
| 20260904011427 | 57 | 57 | 1.0 | 4.0 | 0.00 | 0.23 | 0.19 | 88 | 1011.8 |
| 20260904010925 | 57 | 65 | 1.0 | 3.0 | 0.00 | 0.23 | 0.19 | 88 | 1011.9 |
| 20260904010422 | 57 | 90 | 0.0 | 3.0 | 0.00 | 0.23 | 0.19 | 90 | 1011.9 |
| 20260904010004 | 57 | 46 | 0.0 | 3.0 | 0.00 | 0.25 | 0.19 | 89 | 1011.9 |
| 20260904005441 | 57 | 99 | 0.0 | 3.0 | 0.00 | 0.25 | 0.19 | 90 | 1012.0 |
| 20260904004938 | 57 | 130 | 1.0 | 3.0 | 0.00 | 0.25 | 0.19 | 89 | 1011.9 |
| 20260904004437 | 57 | 72 | 1.0 | 3.0 | 0.00 | 0.25 | 0.19 | 89 | 1011.8 |
| 20260904003936 | 57 | 95 | 1.0 | 3.0 | 0.00 | 0.25 | 0.19 | 88 | 1011.8 |
| 20260904003433 | 57 | 116 | 0.0 | 2.0 | 0.00 | 0.25 | 0.19 | 89 | 1011.8 |
| 20260904003000 | 57 | 56 | 1.0 | 2.0 | 0.00 | 0.25 | 0.19 | 89 | 1011.8 |
| 20260904002435 | 57 | 50 | 0.0 | 4.0 | 0.00 | 0.25 | 0.19 | 89 | 1011.8 |
| 20260904001953 | 57 | 76 | 1.0 | 3.0 | 0.02 | 0.25 | 0.19 | 89 | 1011.7 |
| 20260904001449 | 57 | 51 | 0.0 | 2.0 | 0.03 | 0.25 | 0.19 | 90 | 1011.9 |
| 20260904000926 | 57 | 240 | 0.0 | 1.0 | 0.03 | 0.25 | 0.19 | 90 | 1012.0 |
| 20260904000447 | 57 | 238 | 0.0 | 1.0 | 0.05 | 0.25 | 0.19 | 90 | 1012.1 |
| 20260903235943 | 57 | 237 | 0.0 | 2.0 | 0.05 | 0.47 | 0.19 | 89 | 1011.9 |
| 20260903235421 | 56 | 270 | 0.0 | 2.0 | 0.05 | 0.47 | 0.19 | 89 | 1011.9 |
| 20260903234918 | 56 | 249 | 0.0 | 0.0 | 0.05 | 0.47 | 0.19 | 91 | 1011.9 |
| 20260903234446 | 56 | 26 | 0.0 | 1.0 | 0.05 | 0.47 | 0.19 | 91 | 1011.8 |
| 20260903233941 | 56 | 34 | 0.0 | 2.0 | 0.05 | 0.47 | 0.19 | 91 | 1011.8 |
| 20260903233437 | 56 | 37 | 0.0 | 1.0 | 0.05 | 0.47 | 0.19 | 90 | 1011.9 |
| 20260903232935 | 56 | 266 | 0.0 | 1.0 | 0.05 | 0.47 | 0.19 | 89 | 1011.9 |
| 20260903232429 | 57 | 53 | 0.0 | 0.0 | 0.04 | 0.46 | 0.18 | 90 | 1011.8 |
| 20260903231928 | 57 | 273 | 0.0 | 2.0 | 0.03 | 0.45 | 0.17 | 89 | 1012.3 |
| 20260903231455 | 57 | 281 | 0.0 | 5.0 | 0.02 | 0.44 | 0.16 | 87 | 1012.2 |
| 20260903230931 | 58 | 290 | 2.0 | 6.0 | 0.01 | 0.43 | 0.15 | 86 | 1012.4 |
| 20260903230430 | 58 | 250 | 2.0 | 6.0 | 0.00 | 0.42 | 0.14 | 85 | 1012.5 |
| 20260903225948 | 59 | 274 | 1.0 | 4.0 | 0.00 | 0.42 | 0.14 | 84 | 1012.3 |
| 20260903225425 | 59 | 235 | 1.0 | 6.0 | 0.00 | 0.42 | 0.14 | 84 | 1012.4 |
| 20260903224923 | 60 | 296 | 3.0 | 6.0 | 0.00 | 0.42 | 0.14 | 81 | 1012.3 |
| 20260903224420 | 62 | 271 | 2.0 | 4.0 | 0.00 | 0.42 | 0.14 | 77 | 1012.1 |
| 20260903223937 | 62 | 252 | 2.0 | 3.0 | 0.00 | 0.42 | 0.14 | 75 | 1012.2 |
| 20260903223430 | 63 | 268 | 1.0 | 5.0 | 0.00 | 0.42 | 0.14 | 75 | 1012.0 |
| 20260903222932 | 63 | 231 | 2.0 | 5.0 | 0.00 | 0.42 | 0.14 | 72 | 1011.8 |
| 20260903222429 | 64 | 272 | 0.0 | 2.0 | 0.00 | 0.42 | 0.14 | 72 | 1011.8 |
| 20260903221927 | 64 | 21 | 0.0 | 2.0 | 0.00 | 0.42 | 0.14 | 70 | 1011.8 |
| 20260903221438 | 64 | 274 | 0.0 | 3.0 | 0.00 | 0.42 | 0.14 | 72 | 1011.9 |
| 20260903220939 | 63 | 274 | 1.0 | 3.0 | 0.00 | 0.42 | 0.14 | 70 | 1011.9 |
| 20260903220436 | 63 | 271 | 0.0 | 3.0 | 0.00 | 0.42 | 0.14 | 73 | 1011.9 |
| 20260903220002 | 63 | 270 | 1.0 | 3.0 | 0.00 | 0.43 | 0.14 | 72 | 1012.0 |
| 20260903215439 | 63 | 242 | 0.0 | 4.0 | 0.00 | 0.43 | 0.14 | 72 | 1012.0 |
| 20260903214937 | 63 | 110 | 2.0 | 4.0 | 0.00 | 0.43 | 0.14 | 72 | 1012.0 |
| 20260903214430 | 63 | 252 | 1.0 | 2.0 | 0.00 | 0.43 | 0.14 | 73 | 1011.9 |
| 20260903213927 | 63 | 210 | 0.0 | 3.0 | 0.00 | 0.43 | 0.14 | 75 | 1012.0 |
| 20260903213425 | 62 | 229 | 1.0 | 3.0 | 0.00 | 0.43 | 0.14 | 75 | 1012.1 |
| 20260903212945 | 62 | 279 | 1.0 | 4.0 | 0.00 | 0.43 | 0.14 | 76 | 1012.2 |
| 20260903212435 | 62 | 246 | 2.0 | 4.0 | 0.00 | 0.43 | 0.14 | 76 | 1012.2 |
| 20260903211941 | 62 | 225 | 1.0 | 4.0 | 0.00 | 0.43 | 0.14 | 76 | 1012.2 |
| 20260903211437 | 63 | 182 | 0.0 | 4.0 | 0.00 | 0.43 | 0.14 | 77 | 1012.3 |
| 20260903210934 | 63 | 227 | 2.0 | 4.0 | 0.00 | 0.43 | 0.14 | 77 | 1012.3 |
| 20260903210433 | 62 | 254 | 0.0 | 5.0 | 0.00 | 0.43 | 0.14 | 77 | 1012.3 |
| 20260903205933 | 62 | 228 | 1.0 | 5.0 | 0.00 | 0.49 | 0.14 | 77 | 1012.2 |
| 20260903205431 | 63 | 51 | 0.0 | 4.0 | 0.01 | 0.49 | 0.14 | 79 | 1012.3 |
| 20260903204927 | 62 | 244 | 0.0 | 4.0 | 0.01 | 0.49 | 0.14 | 78 | 1012.2 |
| 20260903204428 | 63 | 297 | 1.0 | 5.0 | 0.01 | 0.49 | 0.14 | 78 | 1012.1 |
| 20260903203923 | 63 | 138 | 1.0 | 6.0 | 0.01 | 0.49 | 0.14 | 79 | 1012.1 |
| 20260903203421 | 63 | 220 | 2.0 | 6.0 | 0.01 | 0.49 | 0.14 | 81 | 1012.1 |
| 20260903202918 | 63 | 81 | 0.0 | 3.0 | 0.01 | 0.49 | 0.14 | 80 | 1012.0 |
| 20260903202435 | 63 | 83 | 1.0 | 3.0 | 0.01 | 0.49 | 0.14 | 80 | 1012.1 |
| 20260903201942 | 63 | 117 | 0.0 | 2.0 | 0.01 | 0.49 | 0.14 | 82 | 1012.0 |
| 20260903201457 | 62 | 261 | 0.0 | 2.0 | 0.01 | 0.49 | 0.14 | 82 | 1012.1 |
| 20260903200930 | 62 | 342 | 0.0 | 3.0 | 0.01 | 0.49 | 0.14 | 84 | 1012.0 |
| 20260903200428 | 61 | 218 | 1.0 | 10.0 | 0.01 | 0.49 | 0.14 | 85 | 1012.1 |
| 20260903195932 | 61 | 251 | 1.0 | 10.0 | 0.01 | 0.64 | 0.14 | 85 | 1012.1 |
| 20260903195428 | 61 | 91 | 1.0 | 5.0 | 0.00 | 0.63 | 0.13 | 83 | 1012.2 |
| 20260903194920 | 61 | 113 | 2.0 | 5.0 | 0.00 | 0.63 | 0.13 | 81 | 1012.3 |
| 20260903194418 | 62 | 270 | 2.0 | 5.0 | 0.00 | 0.63 | 0.13 | 80 | 1012.2 |
| 20260903193944 | 62 | 71 | 0.0 | 3.0 | 0.00 | 0.63 | 0.13 | 81 | 1012.1 |
| 20260903193443 | 62 | 124 | 0.0 | 4.0 | 0.00 | 0.63 | 0.13 | 81 | 1012.1 |
| 20260903192919 | 62 | 113 | 1.0 | 6.0 | 0.00 | 0.63 | 0.13 | 81 | 1012.2 |
| 20260903192502 | 62 | 276 | 0.0 | 6.0 | 0.01 | 0.63 | 0.13 | 82 | 1012.1 |
| 20260903191919 | 62 | 81 | 1.0 | 3.0 | 0.02 | 0.63 | 0.13 | 84 | 1012.2 |
| 20260903191418 | 61 | 178 | 0.0 | 3.0 | 0.02 | 0.63 | 0.13 | 85 | 1012.3 |
| 20260903190936 | 61 | 26 | 0.0 | 2.0 | 0.02 | 0.63 | 0.13 | 89 | 1012.4 |
| 20260903190433 | 60 | 239 | 0.0 | 6.0 | 0.02 | 0.63 | 0.13 | 88 | 1012.3 |
| 20260903185933 | 60 | 224 | 1.0 | 6.0 | 0.02 | 0.69 | 0.13 | 88 | 1012.4 |
| 20260903185428 | 60 | 267 | 1.0 | 3.0 | 0.02 | 0.69 | 0.13 | 89 | 1012.3 |
| 20260903184919 | 60 | 256 | 1.0 | 3.0 | 0.02 | 0.69 | 0.13 | 88 | 1012.3 |
| 20260903184446 | 59 | 243 | 1.0 | 3.0 | 0.02 | 0.69 | 0.13 | 88 | 1012.4 |
| 20260903183932 | 59 | 233 | 0.0 | 2.0 | 0.02 | 0.69 | 0.13 | 90 | 1012.4 |
| 20260903183429 | 59 | 231 | 0.0 | 3.0 | 0.02 | 0.69 | 0.13 | 89 | 1012.4 |
| 20260903182946 | 59 | 285 | 1.0 | 7.0 | 0.02 | 0.69 | 0.13 | 86 | 1012.3 |
| 20260903182423 | 60 | 282 | 3.0 | 7.0 | 0.01 | 0.68 | 0.12 | 84 | 1012.3 |
| 20260903181924 | 61 | 256 | 2.0 | 6.0 | 0.00 | 0.67 | 0.11 | 82 | 1012.3 |
| 20260903181422 | 62 | 256 | 0.0 | 3.0 | 0.00 | 0.67 | 0.11 | 82 | 1012.1 |
| 20260903180920 | 62 | 120 | 0.0 | 6.0 | 0.00 | 0.67 | 0.11 | 82 | 1012.0 |
| 20260903180436 | 63 | 270 | 1.0 | 4.0 | 0.00 | 0.67 | 0.11 | 81 | 1012.0 |
| 20260903175944 | 63 | 155 | 0.0 | 2.0 | 0.00 | 0.71 | 0.11 | 84 | 1012.0 |
| 20260903175423 | 62 | 192 | 1.0 | 3.0 | 0.00 | 0.71 | 0.11 | 83 | 1012.0 |
| 20260903174920 | 62 | 295 | 1.0 | 3.0 | 0.00 | 0.71 | 0.11 | 85 | 1012.0 |
| 20260903174418 | 62 | 257 | 0.0 | 3.0 | 0.00 | 0.71 | 0.11 | 86 | 1011.9 |
| 20260903173933 | 62 | 100 | 1.0 | 3.0 | 0.00 | 0.71 | 0.11 | 83 | 1011.8 |
| 20260903173430 | 62 | 345 | 1.0 | 4.0 | 0.00 | 0.71 | 0.11 | 84 | 1011.9 |
| 20260903172957 | 61 | 84 | 1.0 | 4.0 | 0.00 | 0.71 | 0.11 | 84 | 1011.9 |
| 20260903172434 | 61 | 194 | 0.0 | 3.0 | 0.00 | 0.71 | 0.11 | 87 | 1011.9 |
| 20260903171932 | 60 | 44 | 0.0 | 2.0 | 0.00 | 0.71 | 0.11 | 91 | 1012.0 |
| 20260903171437 | 59 | 56 | 1.0 | 2.0 | 0.00 | 0.71 | 0.11 | 90 | 1012.0 |
| 20260903170934 | 58 | 51 | 1.0 | 3.0 | 0.00 | 0.71 | 0.11 | 91 | 1012.2 |
| 20260903170441 | 58 | 150 | 0.0 | 3.0 | 0.00 | 0.71 | 0.11 | 92 | 1012.1 |
| 20260903165938 | 58 | 167 | 0.0 | 3.0 | 0.00 | 0.71 | 0.11 | 93 | 1012.2 |
| 20260903165452 | 58 | 271 | 0.0 | 1.0 | 0.00 | 0.71 | 0.11 | 94 | 1012.3 |
| 20260903164929 | 58 | 253 | 0.0 | 2.0 | 0.00 | 0.71 | 0.11 | 94 | 1012.3 |
| 20260903164437 | 57 | 223 | 0.0 | 2.0 | 0.00 | 0.71 | 0.11 | 94 | 1012.3 |
| 20260903163926 | 57 | 215 | 0.0 | 0.0 | 0.00 | 0.71 | 0.11 | 95 | 1012.3 |
| 20260903163506 | 57 | 79 | 0.0 | 0.0 | 0.00 | 0.71 | 0.11 | 96 | 1012.3 |
| 20260903162922 | 57 | 79 | 0.0 | 0.0 | 0.00 | 0.71 | 0.11 | 96 | 1012.3 |
| 20260903162418 | 56 | 79 | 0.0 | 1.0 | 0.00 | 0.71 | 0.11 | 96 | 1012.2 |
| 20260903161944 | 56 | 79 | 0.0 | 1.0 | 0.01 | 0.71 | 0.11 | 95 | 1012.3 |
| 20260903161443 | 56 | 79 | 0.0 | 2.0 | 0.01 | 0.71 | 0.11 | 96 | 1012.4 |
| 20260903160923 | 55 | 106 | 1.0 | 2.0 | 0.02 | 0.71 | 0.11 | 95 | 1012.4 |
| 20260903160456 | 55 | 63 | 0.0 | 0.0 | 0.02 | 0.71 | 0.11 | 95 | 1012.3 |
| 20260903155931 | 55 | 58 | 0.0 | 0.0 | 0.02 | 0.71 | 0.11 | 96 | 1012.3 |
| 20260903155439 | 55 | 57 | 0.0 | 0.0 | 0.03 | 0.71 | 0.11 | 96 | 1012.3 |
| 20260903154935 | 55 | 57 | 0.0 | 0.0 | 0.03 | 0.71 | 0.11 | 96 | 1012.3 |
| 20260903154442 | 55 | 57 | 0.0 | 0.0 | 0.04 | 0.71 | 0.11 | 96 | 1012.3 |
| 20260903153919 | 54 | 57 | 0.0 | 0.0 | 0.04 | 0.71 | 0.11 | 96 | 1012.3 |
| 20260903153437 | 54 | 57 | 0.0 | 0.0 | 0.05 | 0.71 | 0.11 | 96 | 1012.4 |
| 20260903152934 | 54 | 102 | 0.0 | 0.0 | 0.05 | 0.71 | 0.11 | 96 | 1012.4 |
| 20260903152430 | 54 | 102 | 0.0 | 0.0 | 0.05 | 0.71 | 0.11 | 96 | 1012.4 |
| 20260903151926 | 54 | 129 | 0.0 | 0.0 | 0.05 | 0.70 | 0.10 | 96 | 1012.4 |
| 20260903151424 | 54 | 109 | 0.0 | 0.0 | 0.04 | 0.69 | 0.09 | 96 | 1012.5 |
| 20260903150936 | 54 | 109 | 0.0 | 0.0 | 0.05 | 0.69 | 0.09 | 96 | 1012.5 |
| 20260903150442 | 54 | 90 | 0.0 | 0.0 | 0.05 | 0.69 | 0.09 | 96 | 1012.4 |
| 20260903145941 | 54 | 90 | 0.0 | 0.0 | 0.05 | 0.69 | 0.09 | 96 | 1012.3 |
| 20260903145457 | 54 | 92 | 0.0 | 0.0 | 0.04 | 0.68 | 0.08 | 96 | 1012.2 |
| 20260903145003 | 54 | 117 | 0.0 | 0.0 | 0.04 | 0.68 | 0.08 | 96 | 1012.3 |
| 20260903144440 | 54 | 241 | 0.0 | 0.0 | 0.03 | 0.67 | 0.07 | 96 | 1012.4 |
| 20260903143936 | 53 | 242 | 0.0 | 0.0 | 0.03 | 0.67 | 0.07 | 96 | 1012.3 |
| 20260903143431 | 53 | 242 | 0.0 | 0.0 | 0.02 | 0.66 | 0.06 | 96 | 1012.3 |
| 20260903142950 | 53 | 242 | 0.0 | 0.0 | 0.02 | 0.66 | 0.06 | 96 | 1012.2 |
| 20260903142437 | 53 | 239 | 0.0 | 0.0 | 0.02 | 0.66 | 0.06 | 96 | 1012.0 |
| 20260903141954 | 53 | 238 | 0.0 | 0.0 | 0.01 | 0.65 | 0.05 | 96 | 1012.1 |
| 20260903141454 | 53 | 258 | 0.0 | 0.0 | 0.01 | 0.65 | 0.05 | 96 | 1012.0 |
| 20260903140929 | 53 | 255 | 0.0 | 0.0 | 0.00 | 0.64 | 0.04 | 96 | 1011.8 |
| 20260903140420 | 53 | 13 | 0.0 | 0.0 | 0.00 | 0.64 | 0.04 | 96 | 1011.9 |
| 20260903135946 | 53 | 14 | 0.0 | 0.0 | 0.01 | 0.64 | 0.04 | 96 | 1011.9 |
| 20260903135444 | 53 | 290 | 0.0 | 0.0 | 0.01 | 0.64 | 0.04 | 96 | 1011.8 |
| 20260903134938 | 53 | 290 | 0.0 | 0.0 | 0.01 | 0.64 | 0.04 | 96 | 1011.9 |
| 20260903134454 | 53 | 289 | 0.0 | 0.0 | 0.01 | 0.64 | 0.04 | 96 | 1012.0 |
| 20260903133931 | 53 | 290 | 0.0 | 1.0 | 0.01 | 0.64 | 0.04 | 96 | 1011.9 |
| 20260903133432 | 53 | 290 | 0.0 | 1.0 | 0.01 | 0.64 | 0.04 | 96 | 1011.8 |
| 20260903132932 | 53 | 290 | 0.0 | 1.0 | 0.01 | 0.64 | 0.04 | 96 | 1011.7 |
| 20260903132449 | 53 | 331 | 0.0 | 0.0 | 0.01 | 0.64 | 0.04 | 96 | 1011.6 |
| 20260903131929 | 53 | 331 | 0.0 | 0.0 | 0.01 | 0.64 | 0.04 | 96 | 1011.6 |
| 20260903131426 | 53 | 331 | 0.0 | 0.0 | 0.01 | 0.64 | 0.04 | 96 | 1011.7 |
| 20260903130922 | 53 | 331 | 0.0 | 1.0 | 0.01 | 0.64 | 0.04 | 96 | 1011.7 |
| 20260903130436 | 53 | 331 | 0.0 | 2.0 | 0.01 | 0.64 | 0.04 | 96 | 1011.7 |
| 20260903125933 | 53 | 330 | 0.0 | 2.0 | 0.00 | 0.63 | 0.03 | 96 | 1011.7 |
| 20260903125431 | 53 | 63 | 0.0 | 0.0 | 0.00 | 0.63 | 0.03 | 96 | 1011.7 |
| 20260903124935 | 52 | 63 | 0.0 | 0.0 | 0.00 | 0.63 | 0.03 | 96 | 1011.7 |
| 20260903124433 | 52 | 68 | 0.0 | 0.0 | 0.00 | 0.63 | 0.03 | 96 | 1011.7 |
| 20260903123934 | 52 | 68 | 0.0 | 0.0 | 0.00 | 0.63 | 0.03 | 96 | 1011.7 |
| 20260903123429 | 52 | 81 | 0.0 | 0.0 | 0.00 | 0.63 | 0.03 | 96 | 1011.7 |
| 20260903122918 | 52 | 146 | 0.0 | 1.0 | 0.00 | 0.63 | 0.03 | 96 | 1011.7 |
| 20260903122446 | 52 | 146 | 0.0 | 1.0 | 0.00 | 0.63 | 0.03 | 96 | 1011.7 |
| 20260903121940 | 52 | 272 | 0.0 | 2.0 | 0.00 | 0.63 | 0.03 | 96 | 1011.7 |
| 20260903121437 | 52 | 137 | 0.0 | 2.0 | 0.00 | 0.63 | 0.03 | 96 | 1011.6 |
| 20260903120934 | 52 | 70 | 0.0 | 2.0 | 0.00 | 0.63 | 0.03 | 96 | 1011.7 |
| 20260903120433 | 52 | 188 | 0.0 | 0.0 | 0.00 | 0.63 | 0.03 | 96 | 1011.9 |
| 20260903115939 | 52 | 189 | 0.0 | 0.0 | 0.00 | 0.63 | 0.03 | 96 | 1012.0 |
| 20260903115435 | 52 | 188 | 0.0 | 0.0 | 0.00 | 0.63 | 0.03 | 96 | 1012.0 |
| 20260903114931 | 52 | 189 | 0.0 | 0.0 | 0.00 | 0.63 | 0.03 | 96 | 1011.9 |
| 20260903114430 | 52 | 189 | 0.0 | 0.0 | 0.00 | 0.63 | 0.03 | 96 | 1011.9 |
| 20260903113949 | 52 | 189 | 0.0 | 1.0 | 0.00 | 0.63 | 0.03 | 96 | 1011.8 |
| 20260903113423 | 52 | 230 | 0.0 | 2.0 | 0.00 | 0.63 | 0.03 | 96 | 1011.9 |
| 20260903112943 | 52 | 215 | 0.0 | 1.0 | 0.00 | 0.63 | 0.03 | 96 | 1011.9 |
| 20260903112442 | 52 | 226 | 0.0 | 1.0 | 0.00 | 0.63 | 0.03 | 96 | 1011.8 |
| 20260903111938 | 52 | 176 | 0.0 | 0.0 | 0.00 | 0.63 | 0.03 | 96 | 1011.8 |
| 20260903111435 | 52 | 215 | 0.0 | 0.0 | 0.00 | 0.63 | 0.03 | 96 | 1011.8 |
| 20260903110932 | 52 | 215 | 0.0 | 2.0 | 0.00 | 0.63 | 0.03 | 96 | 1011.9 |
| 20260903110441 | 53 | 215 | 0.0 | 2.0 | 0.00 | 0.63 | 0.03 | 96 | 1011.9 |
| 20260903105936 | 53 | 227 | 0.0 | 0.0 | 0.00 | 0.63 | 0.03 | 96 | 1011.9 |
| 20260903105434 | 53 | 227 | 0.0 | 1.0 | 0.00 | 0.63 | 0.03 | 96 | 1011.9 |
| 20260903104932 | 53 | 227 | 0.0 | 1.0 | 0.00 | 0.63 | 0.03 | 96 | 1011.9 |
| 20260903104425 | 53 | 110 | 0.0 | 1.0 | 0.00 | 0.63 | 0.03 | 96 | 1011.9 |
| 20260903103923 | 53 | 185 | 0.0 | 0.0 | 0.00 | 0.63 | 0.03 | 95 | 1012.0 |
| 20260903103444 | 53 | 185 | 0.0 | 0.0 | 0.00 | 0.63 | 0.03 | 95 | 1012.0 |
| 20260903102944 | 53 | 185 | 0.0 | 1.0 | 0.00 | 0.63 | 0.03 | 95 | 1012.1 |
| 20260903102422 | 53 | 185 | 0.0 | 1.0 | 0.00 | 0.63 | 0.03 | 95 | 1012.0 |
| 20260903101921 | 53 | 186 | 0.0 | 3.0 | 0.00 | 0.63 | 0.03 | 95 | 1012.0 |
| 20260903101437 | 53 | 146 | 0.0 | 3.0 | 0.00 | 0.63 | 0.03 | 95 | 1011.9 |
| 20260903100935 | 53 | 255 | 0.0 | 1.0 | 0.00 | 0.63 | 0.03 | 95 | 1011.8 |
| 20260903100443 | 54 | 255 | 0.0 | 1.0 | 0.00 | 0.63 | 0.03 | 95 | 1011.7 |
| 20260903095942 | 54 | 252 | 0.0 | 0.0 | 0.00 | 0.63 | 0.03 | 95 | 1011.7 |
| 20260903095440 | 54 | 252 | 0.0 | 1.0 | 0.01 | 0.63 | 0.03 | 95 | 1011.8 |
| 20260903094936 | 54 | 252 | 0.0 | 1.0 | 0.01 | 0.63 | 0.03 | 95 | 1011.8 |
| 20260903094430 | 54 | 252 | 0.0 | 1.0 | 0.01 | 0.63 | 0.03 | 95 | 1011.8 |
| 20260903093937 | 54 | 264 | 0.0 | 0.0 | 0.01 | 0.63 | 0.03 | 95 | 1011.8 |
| 20260903093435 | 54 | 265 | 0.0 | 0.0 | 0.01 | 0.63 | 0.03 | 95 | 1011.8 |
| 20260903092932 | 54 | 261 | 0.0 | 0.0 | 0.01 | 0.63 | 0.03 | 95 | 1011.9 |
| 20260903092450 | 54 | 249 | 0.0 | 0.0 | 0.01 | 0.63 | 0.03 | 95 | 1011.8 |
| 20260903091954 | 54 | 249 | 0.0 | 0.0 | 0.01 | 0.63 | 0.03 | 95 | 1011.8 |
| 20260903091428 | 55 | 263 | 0.0 | 0.0 | 0.01 | 0.63 | 0.03 | 95 | 1011.9 |
| 20260903090939 | 55 | 263 | 0.0 | 0.0 | 0.01 | 0.63 | 0.03 | 95 | 1011.9 |
| 20260903090425 | 55 | 264 | 0.0 | 0.0 | 0.01 | 0.63 | 0.03 | 95 | 1011.9 |
| 20260903085919 | 55 | 264 | 0.0 | 0.0 | 0.01 | 0.63 | 0.03 | 95 | 1012.0 |
| 20260903085506 | 55 | 264 | 0.0 | 0.0 | 0.00 | 0.62 | 0.02 | 95 | 1012.0 |
| 20260903084943 | 55 | 264 | 0.0 | 0.0 | 0.00 | 0.62 | 0.02 | 95 | 1012.1 |
| 20260903084443 | 55 | 264 | 0.0 | 0.0 | 0.01 | 0.62 | 0.02 | 95 | 1012.0 |
| 20260903083922 | 55 | 264 | 0.0 | 0.0 | 0.01 | 0.62 | 0.02 | 95 | 1012.0 |
| 20260903083420 | 55 | 264 | 0.0 | 0.0 | 0.01 | 0.62 | 0.02 | 95 | 1012.0 |
| 20260903082919 | 55 | 264 | 0.0 | 0.0 | 0.01 | 0.62 | 0.02 | 95 | 1012.1 |
| 20260903082436 | 55 | 264 | 0.0 | 0.0 | 0.02 | 0.62 | 0.02 | 95 | 1012.1 |
| 20260903081934 | 55 | 264 | 0.0 | 0.0 | 0.02 | 0.62 | 0.02 | 95 | 1012.1 |
| 20260903081442 | 55 | 252 | 0.0 | 0.0 | 0.02 | 0.62 | 0.02 | 95 | 1012.1 |
| 20260903080940 | 55 | 252 | 0.0 | 0.0 | 0.02 | 0.62 | 0.02 | 95 | 1012.1 |
| 20260903080419 | 55 | 253 | 0.0 | 0.0 | 0.02 | 0.62 | 0.02 | 95 | 1012.2 |
| 20260903075934 | 55 | 253 | 0.0 | 0.0 | 0.02 | 0.62 | 0.02 | 95 | 1012.2 |
| 20260903075433 | 55 | 251 | 0.0 | 0.0 | 0.02 | 0.62 | 0.02 | 95 | 1012.1 |
| 20260903075000 | 55 | 252 | 0.0 | 0.0 | 0.03 | 0.62 | 0.02 | 95 | 1012.2 |
| 20260903074436 | 55 | 252 | 0.0 | 0.0 | 0.02 | 0.61 | 0.01 | 95 | 1012.3 |
| 20260903073935 | 55 | 252 | 0.0 | 0.0 | 0.02 | 0.61 | 0.01 | 95 | 1012.1 |
| 20260903073433 | 55 | 252 | 0.0 | 0.0 | 0.02 | 0.61 | 0.01 | 95 | 1012.1 |
| 20260903072930 | 55 | 277 | 0.0 | 1.0 | 0.02 | 0.61 | 0.01 | 95 | 1012.0 |
| 20260903072457 | 55 | 255 | 0.0 | 3.0 | 0.02 | 0.60 | 0.00 | 95 | 1012.0 |
| 20260903071933 | 55 | 236 | 1.0 | 3.0 | 0.03 | 0.60 | 0.00 | 95 | 1012.1 |
| 20260903071431 | 55 | 256 | 0.0 | 4.0 | 0.04 | 0.60 | 0.00 | 95 | 1012.0 |
| 20260903070925 | 55 | 34 | 1.0 | 4.0 | 0.04 | 0.60 | 0.00 | 95 | 1012.0 |
| 20260903070418 | 55 | 223 | 0.0 | 3.0 | 0.04 | 0.60 | 0.00 | 95 | 1011.9 |